Time,TemperatureF,DewpointF,PressureIn,WindDirection,WindDirectionDegrees,WindSpeedMPH,WindSpeedGustMPH,Humidity,HourlyPrecipIn,Conditions,Clouds,dailyrainin,SoftwareType,DateUTC
2013-01-09 00:02:00,35.2,25.3,29.81,West,270,19.0,34.0,67,0.00,,,0.00,meteohub,2013-01-09 06:02:00,
2013-01-09 00:07:00,35.1,24.8,29.81,West,270,15.0,34.0,66,0.00,,,0.00,meteohub,2013-01-09 06:07:00,
2013-01-09 00:12:00,34.9,24.6,29.81,West,270,11.0,26.0,66,0.00,,,0.00,meteohub,2013-01-09 06:12:00,
2013-01-09 00:17:00,34.7,24.4,29.81,West,270,13.0,22.0,66,0.00,,,0.00,meteohub,2013-01-09 06:17:00,
2013-01-09 00:23:00,34.3,24.1,29.82,West,270,11.0,17.0,66,0.00,,,0.00,meteohub,2013-01-09 06:23:00,
2013-01-09 00:28:00,33.8,23.7,29.81,West,270,10.0,15.0,66,0.00,,,0.00,meteohub,2013-01-09 06:28:00,
2013-01-09 00:33:00,33.4,23.7,29.82,West,270,11.0,13.0,67,0.00,,,0.00,meteohub,2013-01-09 06:33:00,
2013-01-09 00:38:00,33.1,23.4,29.81,West,270,14.0,14.0,67,0.00,,,0.00,meteohub,2013-01-09 06:38:00,
2013-01-09 00:43:00,32.7,23.0,29.81,West,270,11.0,14.0,67,0.00,,,0.00,meteohub,2013-01-09 06:43:00,
2013-01-09 00:49:00,32.2,22.5,29.81,West,270,12.0,14.0,67,0.00,,,0.00,meteohub,2013-01-09 06:49:00,
2013-01-09 00:54:00,31.6,22.3,29.81,West,270,11.0,14.0,68,0.00,,,0.00,meteohub,2013-01-09 06:54:00,
2013-01-09 00:59:00,31.3,21.9,29.82,West,270,14.0,15.0,68,0.00,,,0.00,meteohub,2013-01-09 06:59:00,
2013-01-09 01:04:00,30.9,21.6,29.82,West,270,11.0,15.0,68,0.00,,,0.00,meteohub,2013-01-09 07:04:00,
2013-01-09 01:09:00,30.0,21.0,29.82,West,270,10.0,15.0,69,0.00,,,0.00,meteohub,2013-01-09 07:09:00,
2013-01-09 01:14:00,29.5,20.7,29.82,West,270,10.0,15.0,69,0.00,,,0.00,meteohub,2013-01-09 07:14:00,
2013-01-09 01:19:00,29.1,20.5,29.82,SW,225,8.0,15.0,70,0.00,,,0.00,meteohub,2013-01-09 07:19:00,
2013-01-09 01:25:00,28.6,20.1,29.82,WNW,293,11.0,12.0,70,0.00,,,0.00,meteohub,2013-01-09 07:25:00,
2013-01-09 01:30:00,28.2,18.3,29.83,SW,225,11.0,11.0,66,0.00,,,0.00,meteohub,2013-01-09 07:30:00,
2013-01-09 01:35:00,27.7,17.8,29.82,West,270,11.0,11.0,66,0.00,,,0.00,meteohub,2013-01-09 07:35:00,
2013-01-09 01:40:00,27.5,17.6,29.82,SW,225,8.0,11.0,66,0.00,,,0.00,meteohub,2013-01-09 07:40:00,
2013-01-09 01:45:00,27.1,17.2,29.83,West,270,11.0,11.0,66,0.00,,,0.00,meteohub,2013-01-09 07:45:00,
2013-01-09 01:50:00,27.1,17.6,29.83,West,270,12.0,14.0,67,0.00,,,0.00,meteohub,2013-01-09 07:50:00,
2013-01-09 01:55:00,27.5,18.3,29.83,West,270,14.0,15.0,68,0.00,,,0.00,meteohub,2013-01-09 07:55:00,
2013-01-09 02:00:00,27.7,18.5,29.83,SW,225,15.0,16.0,68,0.00,,,0.00,meteohub,2013-01-09 08:00:00,
2013-01-09 02:05:00,28.4,20.5,29.84,West,270,15.0,16.0,72,0.00,,,0.00,meteohub,2013-01-09 08:05:00,
2013-01-09 02:11:00,28.6,20.7,29.84,West,270,16.0,18.0,72,0.00,,,0.00,meteohub,2013-01-09 08:11:00,
2013-01-09 02:16:00,29.3,21.4,29.84,West,270,23.0,23.0,72,0.00,,,0.00,meteohub,2013-01-09 08:16:00,
2013-01-09 02:21:00,30.4,22.5,29.85,West,270,22.0,23.0,72,0.00,,,0.00,meteohub,2013-01-09 08:21:00,
2013-01-09 02:26:00,31.5,23.5,29.85,West,270,28.0,28.0,72,0.00,,,0.00,meteohub,2013-01-09 08:26:00,
2013-01-09 02:31:00,32.2,23.5,29.85,West,270,26.0,28.0,70,0.00,,,0.00,meteohub,2013-01-09 08:31:00,
2013-01-09 02:36:00,32.9,24.3,29.85,West,270,26.0,28.0,70,0.00,,,0.00,meteohub,2013-01-09 08:36:00,
2013-01-09 02:42:00,33.3,24.3,29.85,West,270,30.0,30.0,69,0.00,,,0.00,meteohub,2013-01-09 08:42:00,
2013-01-09 02:47:00,34.0,23.9,29.85,West,270,26.0,34.0,66,0.00,,,0.00,meteohub,2013-01-09 08:47:00,
2013-01-09 02:52:00,34.2,23.5,29.86,West,270,30.0,34.0,65,0.00,,,0.00,meteohub,2013-01-09 08:52:00,
2013-01-09 02:57:00,34.2,23.5,29.86,West,270,33.0,39.0,65,0.00,,,0.00,meteohub,2013-01-09 08:57:00,
2013-01-09 03:02:00,34.2,23.2,29.86,West,270,29.0,39.0,64,0.00,,,0.00,meteohub,2013-01-09 09:02:00,
2013-01-09 03:07:00,34.2,23.2,29.86,West,270,30.0,39.0,64,0.00,,,0.00,meteohub,2013-01-09 09:07:00,
2013-01-09 03:13:00,34.2,23.2,29.86,West,270,30.0,39.0,64,0.00,,,0.00,meteohub,2013-01-09 09:13:00,
2013-01-09 03:18:00,34.0,22.6,29.87,West,270,27.0,36.0,63,0.00,,,0.00,meteohub,2013-01-09 09:18:00,
2013-01-09 03:23:00,34.0,22.6,29.88,West,270,31.0,36.0,63,0.00,,,0.00,meteohub,2013-01-09 09:23:00,
2013-01-09 03:28:00,34.2,22.8,29.87,West,270,37.0,37.0,63,0.00,,,0.00,meteohub,2013-01-09 09:28:00,
2013-01-09 03:34:00,33.8,22.5,29.88,West,270,31.0,35.0,63,0.00,,,0.00,meteohub,2013-01-09 09:34:00,
2013-01-09 03:39:00,33.6,22.8,29.87,West,270,35.0,37.0,64,0.00,,,0.00,meteohub,2013-01-09 09:39:00,
2013-01-09 03:44:00,33.4,22.6,29.89,West,270,29.0,37.0,64,0.00,,,0.00,meteohub,2013-01-09 09:44:00,
2013-01-09 03:49:00,33.1,22.3,29.89,West,270,30.0,36.0,64,0.00,,,0.00,meteohub,2013-01-09 09:49:00,
2013-01-09 03:54:00,33.1,22.3,29.90,West,270,25.0,36.0,64,0.00,,,0.00,meteohub,2013-01-09 09:54:00,
2013-01-09 03:59:00,33.1,21.9,29.90,West,270,25.0,34.0,63,0.00,,,0.00,meteohub,2013-01-09 09:59:00,
2013-01-09 04:05:00,33.3,22.1,29.90,SW,225,28.0,34.0,63,0.00,,,0.00,meteohub,2013-01-09 10:05:00,
2013-01-09 04:10:00,33.3,22.1,29.89,West,270,31.0,34.0,63,0.00,,,0.00,meteohub,2013-01-09 10:10:00,
2013-01-09 04:15:00,33.3,22.1,29.90,West,270,35.0,36.0,63,0.00,,,0.00,meteohub,2013-01-09 10:15:00,
2013-01-09 04:20:00,33.1,21.6,29.91,West,270,29.0,36.0,62,0.00,,,0.00,meteohub,2013-01-09 10:20:00,
2013-01-09 04:25:00,32.9,21.4,29.91,West,270,30.0,36.0,62,0.00,,,0.00,meteohub,2013-01-09 10:25:00,
2013-01-09 04:30:00,32.5,21.4,29.91,West,270,31.0,35.0,63,0.00,,,0.00,meteohub,2013-01-09 10:30:00,
2013-01-09 04:35:00,32.4,21.2,29.91,West,270,29.0,34.0,63,0.00,,,0.00,meteohub,2013-01-09 10:35:00,
2013-01-09 04:41:00,32.2,21.0,29.91,West,270,26.0,34.0,63,0.00,,,0.00,meteohub,2013-01-09 10:41:00,
2013-01-09 04:46:00,32.2,21.0,29.92,West,270,30.0,36.0,63,0.00,,,0.00,meteohub,2013-01-09 10:46:00,
2013-01-09 04:51:00,32.4,21.2,29.92,West,270,30.0,36.0,63,0.00,,,0.00,meteohub,2013-01-09 10:51:00,
2013-01-09 04:56:00,32.2,20.7,29.92,West,270,31.0,32.0,62,0.00,,,0.00,meteohub,2013-01-09 10:56:00,
2013-01-09 05:01:00,32.2,20.7,29.92,West,270,28.0,32.0,62,0.00,,,0.00,meteohub,2013-01-09 11:01:00,
2013-01-09 05:06:00,32.0,20.5,29.93,West,270,28.0,32.0,62,0.00,,,0.00,meteohub,2013-01-09 11:06:00,
2013-01-09 05:11:00,32.0,20.5,29.93,West,270,32.0,32.0,62,0.00,,,0.00,meteohub,2013-01-09 11:11:00,
2013-01-09 05:17:00,32.2,20.7,29.93,West,270,30.0,32.0,62,0.00,,,0.00,meteohub,2013-01-09 11:17:00,
2013-01-09 05:22:00,32.2,20.7,29.93,West,270,30.0,32.0,62,0.00,,,0.00,meteohub,2013-01-09 11:22:00,
2013-01-09 05:27:00,32.0,20.5,29.93,West,270,31.0,35.0,62,0.00,,,0.00,meteohub,2013-01-09 11:27:00,
2013-01-09 05:32:00,31.8,20.7,29.93,West,270,26.0,35.0,63,0.00,,,0.00,meteohub,2013-01-09 11:32:00,
2013-01-09 05:37:00,31.6,20.5,29.93,West,270,30.0,34.0,63,0.00,,,0.00,meteohub,2013-01-09 11:37:00,
2013-01-09 05:42:00,31.8,20.7,29.93,West,270,30.0,31.0,63,0.00,,,0.00,meteohub,2013-01-09 11:42:00,
2013-01-09 05:47:00,31.8,20.3,29.94,West,270,30.0,34.0,62,0.00,,,0.00,meteohub,2013-01-09 11:47:00,
2013-01-09 05:53:00,31.6,20.1,29.93,West,270,26.0,34.0,62,0.00,,,0.00,meteohub,2013-01-09 11:53:00,
2013-01-09 05:58:00,31.5,19.9,29.94,West,270,23.0,34.0,62,0.00,,,0.00,meteohub,2013-01-09 11:58:00,
2013-01-09 06:03:00,30.9,19.4,29.94,West,270,25.0,33.0,62,0.00,,,0.00,meteohub,2013-01-09 12:03:00,
2013-01-09 06:08:00,31.1,19.6,29.94,West,270,27.0,33.0,62,0.00,,,0.00,meteohub,2013-01-09 12:08:00,
2013-01-09 06:13:00,31.1,19.6,29.95,West,270,30.0,30.0,62,0.00,,,0.00,meteohub,2013-01-09 12:13:00,
2013-01-09 06:18:00,31.1,19.6,29.95,West,270,24.0,32.0,62,0.00,,,0.00,meteohub,2013-01-09 12:18:00,
2013-01-09 06:23:00,31.1,19.6,29.96,NW,315,27.0,34.0,62,0.00,,,0.00,meteohub,2013-01-09 12:23:00,
2013-01-09 06:28:00,30.7,19.2,29.96,West,270,27.0,34.0,62,0.00,,,0.00,meteohub,2013-01-09 12:28:00,
2013-01-09 06:33:00,30.7,18.9,29.96,West,270,26.0,34.0,61,0.00,,,0.00,meteohub,2013-01-09 12:33:00,
2013-01-09 06:39:00,30.6,18.7,29.97,West,270,29.0,34.0,61,0.00,,,0.00,meteohub,2013-01-09 12:39:00,
2013-01-09 06:44:00,30.6,19.0,29.97,West,270,28.0,34.0,62,0.00,,,0.00,meteohub,2013-01-09 12:44:00,
2013-01-09 06:49:00,30.7,18.9,29.97,West,270,34.0,34.0,61,0.00,,,0.00,meteohub,2013-01-09 12:49:00,
2013-01-09 06:54:00,30.6,18.7,29.97,West,270,31.0,34.0,61,0.00,,,0.00,meteohub,2013-01-09 12:54:00,
2013-01-09 06:59:00,30.4,18.5,29.98,West,270,24.0,34.0,61,0.00,,,0.00,meteohub,2013-01-09 12:59:00,
2013-01-09 07:04:00,30.0,19.0,29.98,NW,315,20.0,34.0,63,0.00,,,0.00,meteohub,2013-01-09 13:04:00,
2013-01-09 07:09:00,29.7,18.7,29.99,West,270,23.0,34.0,63,0.00,,,0.00,meteohub,2013-01-09 13:09:00,
2013-01-09 07:14:00,29.3,18.3,29.99,West,270,20.0,27.0,63,0.00,,,0.00,meteohub,2013-01-09 13:14:00,
2013-01-09 07:20:00,29.1,18.1,29.99,West,270,25.0,27.0,63,0.00,,,0.00,meteohub,2013-01-09 13:20:00,
2013-01-09 07:25:00,28.9,18.0,29.99,West,270,22.0,26.0,63,0.00,,,0.00,meteohub,2013-01-09 13:25:00,
2013-01-09 07:30:00,28.9,18.3,29.99,West,270,21.0,26.0,64,0.00,,,0.00,meteohub,2013-01-09 13:30:00,
2013-01-09 07:35:00,28.6,18.0,30.00,West,270,20.0,25.0,64,0.00,,,0.00,meteohub,2013-01-09 13:35:00,
2013-01-09 07:40:00,28.9,18.3,30.00,West,270,21.0,25.0,64,0.00,,,0.00,meteohub,2013-01-09 13:40:00,
2013-01-09 07:46:00,28.9,18.3,30.00,NW,315,22.0,27.0,64,0.00,,,0.00,meteohub,2013-01-09 13:46:00,
2013-01-09 07:51:00,29.3,18.7,30.01,NW,315,21.0,30.0,64,0.00,,,0.00,meteohub,2013-01-09 13:51:00,
2013-01-09 07:56:00,28.9,18.0,30.01,NW,315,23.0,30.0,63,0.00,,,0.00,meteohub,2013-01-09 13:56:00,
2013-01-09 08:01:00,28.8,17.4,30.01,NW,315,23.0,30.0,62,0.00,,,0.00,meteohub,2013-01-09 14:01:00,
2013-01-09 08:06:00,28.9,17.6,30.02,West,270,28.0,30.0,62,0.00,,,0.00,meteohub,2013-01-09 14:06:00,
2013-01-09 08:11:00,28.9,17.6,30.03,West,270,25.0,30.0,62,0.00,,,0.00,meteohub,2013-01-09 14:11:00,
2013-01-09 08:16:00,28.6,17.2,30.03,West,270,25.0,30.0,62,0.00,,,0.00,meteohub,2013-01-09 14:16:00,
2013-01-09 08:21:00,28.4,17.1,30.03,West,270,22.0,28.0,62,0.00,,,0.00,meteohub,2013-01-09 14:21:00,
2013-01-09 08:26:00,27.9,15.4,30.03,NW,315,21.0,25.0,59,0.00,,,0.00,meteohub,2013-01-09 14:26:00,
2013-01-09 08:32:00,27.7,15.3,30.03,NW,315,22.0,25.0,59,0.00,,,0.00,meteohub,2013-01-09 14:32:00,
2013-01-09 08:37:00,27.5,15.1,30.04,West,270,22.0,24.0,59,0.00,,,0.00,meteohub,2013-01-09 14:37:00,
2013-01-09 08:42:00,27.1,14.7,30.04,West,270,19.0,23.0,59,0.00,,,0.00,meteohub,2013-01-09 14:42:00,
2013-01-09 08:47:00,27.1,14.7,30.04,NW,315,20.0,22.0,59,0.00,,,0.00,meteohub,2013-01-09 14:47:00,
2013-01-09 08:52:00,27.3,15.3,30.04,West,270,23.0,23.0,60,0.00,,,0.00,meteohub,2013-01-09 14:52:00,
2013-01-09 08:57:00,27.1,14.7,30.04,NW,315,19.0,23.0,59,0.00,,,0.00,meteohub,2013-01-09 14:57:00,
2013-01-09 09:02:00,27.3,14.9,30.05,NW,315,19.0,23.0,59,0.00,,,0.00,meteohub,2013-01-09 15:02:00,
2013-01-09 09:07:00,27.1,14.7,30.06,West,270,15.0,23.0,59,0.00,,,0.00,meteohub,2013-01-09 15:07:00,
2013-01-09 09:12:00,27.0,14.5,30.06,West,270,15.0,21.0,59,0.00,,,0.00,meteohub,2013-01-09 15:12:00,
2013-01-09 09:18:00,27.1,14.7,30.06,West,270,16.0,19.0,59,0.00,,,0.00,meteohub,2013-01-09 15:18:00,
2013-01-09 09:23:00,27.3,14.9,30.06,NE,45,15.0,18.0,59,0.00,,,0.00,meteohub,2013-01-09 15:23:00,
2013-01-09 09:28:00,27.5,15.1,30.06,NW,315,17.0,17.0,59,0.00,,,0.00,meteohub,2013-01-09 15:28:00,
2013-01-09 09:33:00,27.5,15.1,30.06,West,270,15.0,17.0,59,0.00,,,0.00,meteohub,2013-01-09 15:33:00,
2013-01-09 09:38:00,27.9,15.4,30.06,West,270,19.0,19.0,59,0.00,,,0.00,meteohub,2013-01-09 15:38:00,
2013-01-09 09:43:00,27.9,15.4,30.06,NW,315,17.0,21.0,59,0.00,,,0.00,meteohub,2013-01-09 15:43:00,
2013-01-09 09:48:00,28.0,15.6,30.06,NW,315,18.0,21.0,59,0.00,,,0.00,meteohub,2013-01-09 15:48:00,
2013-01-09 09:53:00,27.7,15.3,30.06,West,270,15.0,21.0,59,0.00,,,0.00,meteohub,2013-01-09 15:53:00,
2013-01-09 09:59:00,28.0,15.6,30.07,West,270,17.0,21.0,59,0.00,,,0.00,meteohub,2013-01-09 15:59:00,
2013-01-09 10:04:00,28.4,17.4,30.07,NW,315,17.0,20.0,63,0.00,,,0.00,meteohub,2013-01-09 16:04:00,
2013-01-09 10:09:00,28.2,15.8,30.07,West,270,21.0,21.0,59,0.00,,,0.00,meteohub,2013-01-09 16:09:00,
2013-01-09 10:14:00,28.8,17.8,30.06,West,270,16.0,21.0,63,0.00,,,0.00,meteohub,2013-01-09 16:14:00,
2013-01-09 10:19:00,28.4,17.1,30.07,NW,315,17.0,21.0,62,0.00,,,0.00,meteohub,2013-01-09 16:19:00,
2013-01-09 10:24:00,28.6,17.6,30.08,South,180,11.0,21.0,63,0.00,,,0.00,meteohub,2013-01-09 16:24:00,
2013-01-09 10:29:00,28.6,17.2,30.09,West,270,18.0,20.0,62,0.00,,,0.00,meteohub,2013-01-09 16:29:00,
2013-01-09 10:35:00,28.9,17.6,30.09,West,270,13.0,19.0,62,0.00,,,0.00,meteohub,2013-01-09 16:35:00,
2013-01-09 10:40:00,29.5,18.1,30.09,West,270,16.0,19.0,62,0.00,,,0.00,meteohub,2013-01-09 16:40:00,
2013-01-09 10:45:00,29.5,18.1,30.09,West,270,17.0,19.0,62,0.00,,,0.00,meteohub,2013-01-09 16:45:00,
2013-01-09 10:50:00,29.8,18.5,30.10,SW,225,18.0,20.0,62,0.00,,,0.00,meteohub,2013-01-09 16:50:00,
2013-01-09 10:55:00,30.0,18.5,30.11,West,270,15.0,20.0,62,0.00,,,0.00,meteohub,2013-01-09 16:55:00,
2013-01-09 11:00:00,30.0,18.5,30.11,NW,315,11.0,20.0,62,0.00,,,0.00,meteohub,2013-01-09 17:00:00,
2013-01-09 11:05:00,30.6,18.7,30.11,West,270,16.0,18.0,61,0.00,,,0.00,meteohub,2013-01-09 17:05:00,
2013-01-09 11:10:00,30.6,18.7,30.12,West,270,17.0,17.0,61,0.00,,,0.00,meteohub,2013-01-09 17:10:00,
2013-01-09 11:16:00,30.7,18.9,30.12,West,270,16.0,19.0,61,0.00,,,0.00,meteohub,2013-01-09 17:16:00,
2013-01-09 11:21:00,31.1,19.2,30.14,NW,315,13.0,19.0,61,0.00,,,0.00,meteohub,2013-01-09 17:21:00,
2013-01-09 11:26:00,31.3,19.4,30.14,NW,315,17.0,19.0,61,0.00,,,0.00,meteohub,2013-01-09 17:26:00,
2013-01-09 11:31:00,31.6,19.4,30.14,West,270,17.0,20.0,60,0.00,,,0.00,meteohub,2013-01-09 17:31:00,
2013-01-09 11:36:00,31.8,19.6,30.14,West,270,16.0,20.0,60,0.00,,,0.00,meteohub,2013-01-09 17:36:00,
2013-01-09 11:41:00,31.6,19.0,30.14,West,270,18.0,20.0,59,0.00,,,0.00,meteohub,2013-01-09 17:41:00,
2013-01-09 11:46:00,31.6,18.5,30.15,NW,315,15.0,18.0,58,0.00,,,0.00,meteohub,2013-01-09 17:46:00,
2013-01-09 11:51:00,32.2,18.7,30.15,West,270,15.0,18.0,57,0.00,,,0.00,meteohub,2013-01-09 17:51:00,
2013-01-09 11:56:00,32.2,18.7,30.15,West,270,13.0,18.0,57,0.00,,,0.00,meteohub,2013-01-09 17:56:00,
2013-01-09 12:01:00,32.4,18.9,30.15,West,270,15.0,17.0,57,0.00,,,0.00,meteohub,2013-01-09 18:01:00,
2013-01-09 12:07:00,32.5,19.4,30.16,West,270,15.0,17.0,58,0.00,,,0.00,meteohub,2013-01-09 18:07:00,
2013-01-09 12:12:00,32.4,19.2,30.15,West,270,14.0,17.0,58,0.00,,,0.00,meteohub,2013-01-09 18:12:00,
2013-01-09 12:17:00,32.2,19.4,30.15,NW,315,15.0,17.0,59,0.00,,,0.00,meteohub,2013-01-09 18:17:00,
2013-01-09 12:22:00,32.4,19.9,30.16,West,270,16.0,18.0,60,0.00,,,0.00,meteohub,2013-01-09 18:22:00,
2013-01-09 12:27:00,32.4,19.9,30.16,West,270,15.0,18.0,60,0.00,,,0.00,meteohub,2013-01-09 18:27:00,
2013-01-09 12:32:00,32.5,20.1,30.17,West,270,15.0,17.0,60,0.00,,,0.00,meteohub,2013-01-09 18:32:00,
2013-01-09 12:37:00,32.7,20.3,30.17,SW,225,15.0,17.0,60,0.00,,,0.00,meteohub,2013-01-09 18:37:00,
2013-01-09 12:41:00,32.5,19.8,30.17,NW,315,15.0,17.0,59,0.00,,,0.00,meteohub,2013-01-09 18:41:00,
2013-01-09 12:42:00,32.5,19.8,30.17,NW,315,15.0,17.0,59,0.00,,,0.00,meteohub,2013-01-09 18:42:00,
2013-01-09 12:44:00,32.5,19.8,30.17,NW,315,12.0,17.0,59,0.00,,,0.00,meteohub,2013-01-09 18:44:00,
2013-01-09 12:45:00,32.7,20.3,30.16,NW,315,15.0,17.0,60,0.00,,,0.00,meteohub,2013-01-09 18:45:00,
2013-01-09 12:46:00,32.7,20.3,30.17,SW,225,7.0,17.0,60,0.00,,,0.00,meteohub,2013-01-09 18:46:00,
2013-01-09 12:47:00,32.7,20.3,30.17,West,270,17.0,17.0,60,0.00,,,0.00,meteohub,2013-01-09 18:47:00,
2013-01-09 12:48:00,32.7,20.3,30.16,West,270,15.0,17.0,60,0.00,,,0.00,meteohub,2013-01-09 18:48:00,
2013-01-09 12:49:00,32.7,20.3,30.16,West,270,15.0,17.0,60,0.00,,,0.00,meteohub,2013-01-09 18:49:00,
2013-01-09 12:50:00,32.9,20.5,30.16,West,270,16.0,17.0,60,0.00,,,0.00,meteohub,2013-01-09 18:50:00,
2013-01-09 12:55:00,32.7,19.9,30.16,West,270,15.0,17.0,59,0.00,,,0.00,meteohub,2013-01-09 18:55:00,
2013-01-09 13:00:00,32.9,19.8,30.16,West,270,16.0,17.0,58,0.00,,,0.00,meteohub,2013-01-09 19:00:00,
2013-01-09 13:05:00,33.3,20.1,30.16,NW,315,9.0,17.0,58,0.00,,,0.00,meteohub,2013-01-09 19:05:00,
2013-01-09 13:10:00,33.1,19.6,30.16,NW,315,11.0,17.0,57,0.00,,,0.00,meteohub,2013-01-09 19:10:00,
2013-01-09 13:16:00,33.1,19.6,30.16,West,270,13.0,17.0,57,0.00,,,0.00,meteohub,2013-01-09 19:16:00,
2013-01-09 13:21:00,33.3,19.2,30.16,West,270,13.0,17.0,56,0.00,,,0.00,meteohub,2013-01-09 19:21:00,
2013-01-09 13:26:00,33.1,19.0,30.16,NW,315,11.0,15.0,56,0.00,,,0.00,meteohub,2013-01-09 19:26:00,
2013-01-09 13:31:00,33.1,19.0,30.16,West,270,11.0,15.0,56,0.00,,,0.00,meteohub,2013-01-09 19:31:00,
2013-01-09 13:36:00,33.3,18.9,30.17,West,270,11.0,14.0,55,0.00,,,0.00,meteohub,2013-01-09 19:36:00,
2013-01-09 13:41:00,33.4,19.4,30.17,West,270,11.0,14.0,56,0.00,,,0.00,meteohub,2013-01-09 19:41:00,
2013-01-09 13:46:00,33.4,19.4,30.17,NW,315,9.0,14.0,56,0.00,,,0.00,meteohub,2013-01-09 19:46:00,
2013-01-09 13:51:00,33.6,19.6,30.17,West,270,11.0,14.0,56,0.00,,,0.00,meteohub,2013-01-09 19:51:00,
2013-01-09 13:56:00,33.8,19.8,30.18,SW,225,12.0,14.0,56,0.00,,,0.00,meteohub,2013-01-09 19:56:00,
2013-01-09 14:02:00,33.8,19.8,30.19,South,180,10.0,14.0,56,0.00,,,0.00,meteohub,2013-01-09 20:02:00,
2013-01-09 14:07:00,33.8,20.1,30.18,WNW,293,11.0,14.0,57,0.00,,,0.00,meteohub,2013-01-09 20:07:00,
2013-01-09 14:12:00,33.8,20.1,30.18,West,270,10.0,14.0,57,0.00,,,0.00,meteohub,2013-01-09 20:12:00,
2013-01-09 14:17:00,33.8,20.7,30.19,SW,225,10.0,14.0,58,0.00,,,0.00,meteohub,2013-01-09 20:17:00,
2013-01-09 14:22:00,33.8,20.7,30.19,SW,225,12.0,12.0,58,0.00,,,0.00,meteohub,2013-01-09 20:22:00,
2013-01-09 14:27:00,33.6,21.2,30.19,SW,225,9.0,13.0,60,0.00,,,0.00,meteohub,2013-01-09 20:27:00,
2013-01-09 14:32:00,34.0,21.2,30.19,SW,225,10.0,13.0,59,0.00,,,0.00,meteohub,2013-01-09 20:32:00,
2013-01-09 14:37:00,34.0,21.2,30.19,SW,225,11.0,13.0,59,0.00,,,0.00,meteohub,2013-01-09 20:37:00,
2013-01-09 14:43:00,33.8,21.0,30.19,NW,315,8.0,14.0,59,0.00,,,0.00,meteohub,2013-01-09 20:43:00,
2013-01-09 14:48:00,34.2,21.4,30.19,SW,225,6.0,14.0,59,0.00,,,0.00,meteohub,2013-01-09 20:48:00,
2013-01-09 14:53:00,34.3,21.6,30.19,SW,225,8.0,13.0,59,0.00,,,0.00,meteohub,2013-01-09 20:53:00,
2013-01-09 14:58:00,34.2,21.4,30.19,West,270,4.0,11.0,59,0.00,,,0.00,meteohub,2013-01-09 20:58:00,
2013-01-09 15:03:00,34.5,21.7,30.19,SW,225,4.0,9.0,59,0.00,,,0.00,meteohub,2013-01-09 21:03:00,
2013-01-09 15:08:00,34.7,21.9,30.19,SW,225,4.0,8.0,59,0.00,,,0.00,meteohub,2013-01-09 21:08:00,
2013-01-09 15:13:00,35.1,22.1,30.18,SW,225,6.0,7.0,59,0.00,,,0.00,meteohub,2013-01-09 21:13:00,
2013-01-09 15:18:00,35.1,22.1,30.19,SW,225,4.0,6.0,59,0.00,,,0.00,meteohub,2013-01-09 21:18:00,
2013-01-09 15:23:00,35.1,22.1,30.19,South,180,5.0,6.0,59,0.00,,,0.00,meteohub,2013-01-09 21:23:00,
2013-01-09 15:28:00,35.1,21.7,30.19,South,180,8.0,8.0,58,0.00,,,0.00,meteohub,2013-01-09 21:28:00,
2013-01-09 15:33:00,34.9,21.2,30.19,South,180,5.0,8.0,57,0.00,,,0.00,meteohub,2013-01-09 21:33:00,
2013-01-09 15:39:00,34.9,21.6,30.19,South,180,6.0,9.0,58,0.00,,,0.00,meteohub,2013-01-09 21:39:00,
2013-01-09 15:44:00,34.7,21.0,30.19,South,180,4.0,9.0,57,0.00,,,0.00,meteohub,2013-01-09 21:44:00,
2013-01-09 15:49:00,34.0,20.3,30.19,South,180,6.0,8.0,57,0.00,,,0.00,meteohub,2013-01-09 21:49:00,
2013-01-09 15:54:00,33.1,19.9,30.19,South,180,6.0,6.0,58,0.00,,,0.00,meteohub,2013-01-09 21:54:00,
2013-01-09 15:59:00,33.1,20.3,30.18,SE,135,4.0,7.0,59,0.00,,,0.00,meteohub,2013-01-09 21:59:00,
2013-01-09 16:05:00,33.4,21.0,30.18,SE,135,5.0,7.0,60,0.00,,,0.00,meteohub,2013-01-09 22:05:00,
2013-01-09 16:10:00,33.3,20.5,30.17,SSE,158,6.0,7.0,59,0.00,,,0.00,meteohub,2013-01-09 22:10:00,
2013-01-09 16:15:00,32.7,19.9,30.17,SE,135,5.0,5.0,59,0.00,,,0.00,meteohub,2013-01-09 22:15:00,
2013-01-09 16:20:00,32.7,19.9,30.17,SE,135,4.0,6.0,59,0.00,,,0.00,meteohub,2013-01-09 22:20:00,
2013-01-09 16:25:00,32.9,20.1,30.16,SE,135,5.0,6.0,59,0.00,,,0.00,meteohub,2013-01-09 22:25:00,
2013-01-09 16:30:00,32.2,19.0,30.16,SE,135,7.0,7.0,58,0.00,,,0.00,meteohub,2013-01-09 22:30:00,
2013-01-09 16:35:00,31.6,18.5,30.16,SE,135,8.0,8.0,58,0.00,,,0.00,meteohub,2013-01-09 22:35:00,
2013-01-09 16:40:00,31.1,18.1,30.17,South,180,10.0,10.0,58,0.00,,,0.00,meteohub,2013-01-09 22:40:00,
2013-01-09 16:45:00,30.0,17.4,30.16,SE,135,8.0,10.0,59,0.00,,,0.00,meteohub,2013-01-09 22:45:00,
2013-01-09 16:50:00,29.3,16.7,30.15,SE,135,8.0,10.0,59,0.00,,,0.00,meteohub,2013-01-09 22:50:00,
2013-01-09 16:55:00,29.3,17.1,30.15,SE,135,10.0,10.0,60,0.00,,,0.00,meteohub,2013-01-09 22:55:00,
2013-01-09 17:00:00,29.5,17.8,30.14,SE,135,9.0,11.0,61,0.00,,,0.00,meteohub,2013-01-09 23:00:00,
2013-01-09 17:05:00,29.3,17.6,30.14,SE,135,8.0,11.0,61,0.00,,,0.00,meteohub,2013-01-09 23:05:00,
2013-01-09 17:10:00,29.3,18.0,30.15,SE,135,8.0,11.0,62,0.00,,,0.00,meteohub,2013-01-09 23:10:00,
2013-01-09 17:16:00,29.1,17.8,30.15,SE,135,8.0,10.0,62,0.00,,,0.00,meteohub,2013-01-09 23:16:00,
2013-01-09 17:21:00,28.2,15.3,30.15,SE,135,8.0,9.0,58,0.00,,,0.00,meteohub,2013-01-09 23:21:00,
2013-01-09 17:26:00,27.5,14.7,30.15,SE,135,8.0,9.0,58,0.00,,,0.00,meteohub,2013-01-09 23:26:00,
2013-01-09 17:31:00,26.4,14.0,30.15,SE,135,8.0,9.0,59,0.00,,,0.00,meteohub,2013-01-09 23:31:00,
2013-01-09 17:36:00,25.5,13.1,30.15,SE,135,9.0,9.0,59,0.00,,,0.00,meteohub,2013-01-09 23:36:00,
2013-01-09 17:41:00,25.2,12.9,30.15,SE,135,11.0,11.0,59,0.00,,,0.00,meteohub,2013-01-09 23:41:00,
2013-01-09 17:46:00,26.2,14.5,30.14,SE,135,8.0,11.0,61,0.00,,,0.00,meteohub,2013-01-09 23:46:00,
2013-01-09 17:51:00,26.2,14.5,30.14,SE,135,9.0,11.0,61,0.00,,,0.00,meteohub,2013-01-09 23:51:00,
2013-01-09 17:56:00,26.1,14.5,30.14,SE,135,8.0,11.0,61,0.00,,,0.00,meteohub,2013-01-09 23:56:00,
2013-01-09 18:02:00,25.5,14.0,30.14,SE,135,9.0,9.0,61,0.00,,,0.00,meteohub,2013-01-10 00:02:00,
2013-01-09 18:07:00,25.0,13.5,30.14,SE,135,8.0,9.0,61,0.00,,,0.00,meteohub,2013-01-10 00:07:00,
2013-01-09 18:12:00,23.9,12.7,30.14,SE,135,8.0,9.0,62,0.00,,,0.00,meteohub,2013-01-10 00:12:00,
2013-01-09 18:17:00,23.5,12.4,30.14,SE,135,8.0,9.0,62,0.00,,,0.00,meteohub,2013-01-10 00:17:00,
2013-01-09 18:22:00,23.2,12.4,30.14,SE,135,8.0,8.0,63,0.00,,,0.00,meteohub,2013-01-10 00:22:00,
2013-01-09 18:27:00,23.0,12.2,30.14,SE,135,7.0,8.0,63,0.00,,,0.00,meteohub,2013-01-10 00:27:00,
2013-01-09 18:32:00,22.6,12.4,30.14,SE,135,7.0,8.0,64,0.00,,,0.00,meteohub,2013-01-10 00:32:00,
2013-01-09 18:37:00,22.5,12.2,30.14,SE,135,7.0,8.0,64,0.00,,,0.00,meteohub,2013-01-10 00:37:00,
2013-01-09 18:42:00,22.1,11.8,30.14,SE,135,8.0,8.0,64,0.00,,,0.00,meteohub,2013-01-10 00:42:00,
2013-01-09 18:47:00,22.3,12.4,30.14,SE,135,8.0,8.0,65,0.00,,,0.00,meteohub,2013-01-10 00:47:00,
2013-01-09 18:52:00,22.5,12.6,30.13,SSE,158,10.0,10.0,65,0.00,,,0.00,meteohub,2013-01-10 00:52:00,
2013-01-09 18:57:00,22.8,13.1,30.13,SE,135,10.0,10.0,66,0.00,,,0.00,meteohub,2013-01-10 00:57:00,
2013-01-09 19:02:00,22.8,13.1,30.13,SE,135,12.0,12.0,66,0.00,,,0.00,meteohub,2013-01-10 01:02:00,
2013-01-09 19:08:00,23.2,13.5,30.14,SE,135,12.0,12.0,66,0.00,,,0.00,meteohub,2013-01-10 01:08:00,
2013-01-09 19:13:00,23.2,13.5,30.14,SE,135,13.0,13.0,66,0.00,,,0.00,meteohub,2013-01-10 01:13:00,
2013-01-09 19:18:00,23.4,13.6,30.14,SSE,158,11.0,13.0,66,0.00,,,0.00,meteohub,2013-01-10 01:18:00,
2013-01-09 19:23:00,23.4,14.0,30.14,SE,135,13.0,13.0,67,0.00,,,0.00,meteohub,2013-01-10 01:23:00,
2013-01-09 19:28:00,23.5,14.2,30.14,SE,135,11.0,13.0,67,0.00,,,0.00,meteohub,2013-01-10 01:28:00,
2013-01-09 19:33:00,23.5,14.2,30.14,SE,135,11.0,13.0,67,0.00,,,0.00,meteohub,2013-01-10 01:33:00,
2013-01-09 19:38:00,23.5,14.2,30.13,SE,135,12.0,13.0,67,0.00,,,0.00,meteohub,2013-01-10 01:38:00,
2013-01-09 19:43:00,23.9,14.9,30.13,SE,135,13.0,13.0,68,0.00,,,0.00,meteohub,2013-01-10 01:43:00,
2013-01-09 19:48:00,24.3,15.6,30.13,SE,135,13.0,15.0,69,0.00,,,0.00,meteohub,2013-01-10 01:48:00,
2013-01-09 19:53:00,24.3,15.6,30.13,SE,135,11.0,15.0,69,0.00,,,0.00,meteohub,2013-01-10 01:53:00,
2013-01-09 19:58:00,24.3,15.6,30.13,SE,135,12.0,15.0,69,0.00,,,0.00,meteohub,2013-01-10 01:58:00,
2013-01-09 20:04:00,24.3,15.6,30.12,South,180,12.0,13.0,69,0.00,,,0.00,meteohub,2013-01-10 02:04:00,
2013-01-09 20:09:00,24.4,15.8,30.12,SSE,158,12.0,13.0,69,0.00,,,0.00,meteohub,2013-01-10 02:09:00,
2013-01-09 20:14:00,24.3,15.6,30.12,SE,135,14.0,14.0,69,0.00,,,0.00,meteohub,2013-01-10 02:14:00,
2013-01-09 20:19:00,24.1,15.4,30.13,SE,135,14.0,14.0,69,0.00,,,0.00,meteohub,2013-01-10 02:19:00,
2013-01-09 20:24:00,24.3,15.6,30.12,South,180,17.0,17.0,69,0.00,,,0.00,meteohub,2013-01-10 02:24:00,
2013-01-09 20:29:00,24.4,16.0,30.12,SE,135,14.0,15.0,70,0.00,,,0.00,meteohub,2013-01-10 02:29:00,
2013-01-09 20:34:00,24.4,16.0,30.12,SSE,158,12.0,17.0,70,0.00,,,0.00,meteohub,2013-01-10 02:34:00,
2013-01-09 20:39:00,24.4,16.0,30.12,SE,135,16.0,17.0,70,0.00,,,0.00,meteohub,2013-01-10 02:39:00,
2013-01-09 20:44:00,24.4,16.0,30.12,SE,135,16.0,16.0,70,0.00,,,0.00,meteohub,2013-01-10 02:44:00,
2013-01-09 20:50:00,24.3,16.0,30.11,SE,135,15.0,17.0,70,0.00,,,0.00,meteohub,2013-01-10 02:50:00,
2013-01-09 20:55:00,24.4,16.0,30.12,South,180,15.0,17.0,70,0.00,,,0.00,meteohub,2013-01-10 02:55:00,
2013-01-09 21:00:00,24.8,16.2,30.11,SE,135,15.0,17.0,69,0.00,,,0.00,meteohub,2013-01-10 03:00:00,
2013-01-09 21:05:00,24.6,16.2,30.11,South,180,15.0,17.0,70,0.00,,,0.00,meteohub,2013-01-10 03:05:00,
2013-01-09 21:10:00,24.4,16.0,30.11,SE,135,14.0,17.0,70,0.00,,,0.00,meteohub,2013-01-10 03:10:00,
2013-01-09 21:15:00,24.6,16.2,30.11,SSE,158,13.0,16.0,70,0.00,,,0.00,meteohub,2013-01-10 03:15:00,
2013-01-09 21:20:00,24.6,16.2,30.10,SSE,158,15.0,16.0,70,0.00,,,0.00,meteohub,2013-01-10 03:20:00,
2013-01-09 21:25:00,24.6,16.2,30.10,SSE,158,13.0,16.0,70,0.00,,,0.00,meteohub,2013-01-10 03:25:00,
2013-01-09 21:30:00,24.6,16.2,30.10,SE,135,14.0,16.0,70,0.00,,,0.00,meteohub,2013-01-10 03:30:00,
2013-01-09 21:35:00,24.4,16.0,30.09,SE,135,14.0,15.0,70,0.00,,,0.00,meteohub,2013-01-10 03:35:00,
2013-01-09 21:40:00,24.4,16.0,30.09,South,180,15.0,15.0,70,0.00,,,0.00,meteohub,2013-01-10 03:40:00,
2013-01-09 21:46:00,24.4,16.0,30.08,South,180,15.0,15.0,70,0.00,,,0.00,meteohub,2013-01-10 03:46:00,
2013-01-09 21:51:00,25.0,16.3,30.08,SE,135,14.0,15.0,69,0.00,,,0.00,meteohub,2013-01-10 03:51:00,
2013-01-09 21:56:00,25.2,16.3,30.08,SE,135,15.0,15.0,69,0.00,,,0.00,meteohub,2013-01-10 03:56:00,
2013-01-09 22:01:00,25.3,16.5,30.08,SE,135,13.0,15.0,69,0.00,,,0.00,meteohub,2013-01-10 04:01:00,
2013-01-09 22:06:00,25.0,16.3,30.07,SSE,158,13.0,15.0,69,0.00,,,0.00,meteohub,2013-01-10 04:06:00,
2013-01-09 22:11:00,25.0,16.3,30.07,SE,135,14.0,15.0,69,0.00,,,0.00,meteohub,2013-01-10 04:11:00,
2013-01-09 22:16:00,25.0,16.3,30.07,SE,135,16.0,16.0,69,0.00,,,0.00,meteohub,2013-01-10 04:16:00,
2013-01-09 22:21:00,25.2,16.3,30.07,SE,135,17.0,17.0,69,0.00,,,0.00,meteohub,2013-01-10 04:21:00,
2013-01-09 22:26:00,25.5,17.1,30.07,SSE,158,17.0,17.0,70,0.00,,,0.00,meteohub,2013-01-10 04:26:00,
2013-01-09 22:31:00,25.5,17.1,30.08,SE,135,17.0,18.0,70,0.00,,,0.00,meteohub,2013-01-10 04:31:00,
2013-01-09 22:36:00,25.3,16.9,30.08,SSE,158,17.0,19.0,70,0.00,,,0.00,meteohub,2013-01-10 04:36:00,
2013-01-09 22:41:00,24.8,16.2,30.08,South,180,17.0,19.0,69,0.00,,,0.00,meteohub,2013-01-10 04:41:00,
2013-01-09 22:47:00,25.0,16.3,30.08,South,180,16.0,19.0,69,0.00,,,0.00,meteohub,2013-01-10 04:47:00,
2013-01-09 22:52:00,24.8,16.3,30.08,South,180,15.0,18.0,70,0.00,,,0.00,meteohub,2013-01-10 04:52:00,
2013-01-09 22:57:00,25.2,16.7,30.08,South,180,16.0,17.0,70,0.00,,,0.00,meteohub,2013-01-10 04:57:00,
2013-01-09 23:01:00,25.5,17.1,30.07,South,180,15.0,17.0,70,0.00,,,0.00,meteohub,2013-01-10 05:01:00,
2013-01-09 23:02:00,25.7,17.2,30.07,South,180,15.0,17.0,70,0.00,,,0.00,meteohub,2013-01-10 05:02:00,
2013-01-09 23:03:00,25.7,17.2,30.07,South,180,15.0,17.0,70,0.00,,,0.00,meteohub,2013-01-10 05:03:00,
2013-01-09 23:07:00,26.1,17.6,30.07,South,180,17.0,17.0,70,0.00,,,0.00,meteohub,2013-01-10 05:07:00,
2013-01-09 23:12:00,26.6,17.8,30.06,South,180,18.0,18.0,69,0.00,,,0.00,meteohub,2013-01-10 05:12:00,
2013-01-09 23:17:00,27.0,18.1,30.07,South,180,17.0,18.0,69,0.00,,,0.00,meteohub,2013-01-10 05:17:00,
2013-01-09 23:22:00,27.1,18.3,30.06,South,180,18.0,18.0,69,0.00,,,0.00,meteohub,2013-01-10 05:22:00,
2013-01-09 23:27:00,27.3,18.5,30.06,South,180,19.0,19.0,69,0.00,,,0.00,meteohub,2013-01-10 05:27:00,
2013-01-09 23:32:00,27.5,18.7,30.07,South,180,16.0,19.0,69,0.00,,,0.00,meteohub,2013-01-10 05:32:00,
2013-01-09 23:38:00,27.9,19.0,30.07,South,180,18.0,19.0,69,0.00,,,0.00,meteohub,2013-01-10 05:38:00,
2013-01-09 23:43:00,27.9,19.0,30.07,South,180,19.0,20.0,69,0.00,,,0.00,meteohub,2013-01-10 05:43:00,
2013-01-09 23:48:00,28.0,18.9,30.07,South,180,17.0,20.0,68,0.00,,,0.00,meteohub,2013-01-10 05:48:00,
2013-01-09 23:53:00,28.0,18.9,30.07,South,180,15.0,20.0,68,0.00,,,0.00,meteohub,2013-01-10 05:53:00,
2013-01-09 23:58:00,28.2,19.0,30.07,South,180,18.0,19.0,68,0.00,,,0.00,meteohub,2013-01-10 05:58:00,